This is the latest recevied weather packets stored in our database for station/object DF7ER-12. If no packets are shown the sender has not sent any weather packets the latest 10 day(s).
| Time | Temp. | Humidity | Pressure | Rain* | Wind** | Luminosity | Snow |
|---|---|---|---|---|---|---|---|
| 1777623698 | 21.67° C | 53% | 1019.3 hPa | - | - | - | - |
| 1777623399 | 21.11° C | 54% | 1019.3 hPa | - | - | - | - |
| 1777623098 | 21.11° C | 52% | 1019.4 hPa | - | - | - | - |
| 1777622799 | 21.11° C | 51% | 1019.4 hPa | - | - | - | - |
| 1777622498 | 21.11° C | 53% | 1019.3 hPa | - | - | - | - |
| 1777622198 | 21.11° C | 52% | 1019.4 hPa | - | - | - | - |
| 1777621899 | 20.56° C | 54% | 1019.3 hPa | - | - | - | - |
| 1777621599 | 20.56° C | 54% | 1019.3 hPa | - | - | - | - |
| 1777621299 | 20° C | 56% | 1019.3 hPa | - | - | - | - |
| 1777620999 | 20° C | 55% | 1019.4 hPa | - | - | - | - |
| 1777620699 | 19.44° C | 55% | 1019.3 hPa | - | - | - | - |
| 1777620399 | 19.44° C | 55% | 1019.3 hPa | - | - | - | - |
| 1777620098 | 19.44° C | 54% | 1019.4 hPa | - | - | - | - |
| 1777619798 | 18.89° C | 58% | 1019.3 hPa | - | - | - | - |
| 1777619499 | 20° C | 55% | 1019.4 hPa | - | - | - | - |
| 1777619199 | 19.44° C | 56% | 1019.4 hPa | - | - | - | - |
| 1777618898 | 18.89° C | 58% | 1019.4 hPa | - | - | - | - |
| 1777618598 | 18.33° C | 58% | 1019.3 hPa | - | - | - | - |
| 1777618298 | 18.33° C | 59% | 1019.3 hPa | - | - | - | - |
| 1777617998 | 18.33° C | 58% | 1019.4 hPa | - | - | - | - |
| 1777617699 | 18.33° C | 59% | 1019.4 hPa | - | - | - | - |
| 1777617398 | 18.33° C | 60% | 1019.4 hPa | - | - | - | - |
| 1777617099 | 17.78° C | 60% | 1019.3 hPa | - | - | - | - |
| 1777616798 | 17.78° C | 60% | 1019.3 hPa | - | - | - | - |
| 1777616498 | 17.22° C | 61% | 1019.2 hPa | - | - | - | - |
* Rain since midnight (hover to see other rain measurements)
** Current wind speed in m/s (hover to see current wind gust speed)